QPF
0.00 0.00 0.00 0.01 0.01 0.01 0.01 0.01 0.01 0.01 0.01 0.01 0.01 0.01 0.01 0.01 0.01 0.01 0.01 0.01 0.01 0.01 0.01 0.01 0.01 0.01 0.01 0.01 0.02 0.02 0.02 0.02 0.02 0.02 0.02 0.02 0.02 0.01 0.01 0.00 0.01 0.01 0.01
0.00 0.00 0.00 0.01 0.01 0.01 0.01 0.01 0.01 0.01 0.00 0.01 0.01 0.01 0.01 0.01 0.01 0.01 0.01 0.01 0.01 0.01 0.01 0.01 0.01 0.01 0.01 0.01 0.02 0.02 0.01 0.01 0.00 0.00 0.01 0.02 0.01 0.01 0.01 0.01 0.02 0.02 0.01
0.00 0.00 0.00 0.01 0.01 0.02 0.01 0.01 0.01 0.01 0.00 0.00 0.01 0.01 0.01 0.01 0.01 0.01 0.01 0.01 0.01 0.01 0.01 0.01 0.01 0.01 0.01 0.01 0.01 0.01 0.01 0.00 0.00 0.00 0.00 0.01 0.01 0.02 0.01 0.01 0.01 0.01 0.01
0.00 0.00 0.00 0.01 0.01 0.01 0.01 0.01 0.01 0.01 0.00 0.00 0.01 0.01 0.01 0.01 0.00 0.01 0.01 0.01 0.01 0.01 0.01 0.00 0.00 0.00 0.00 0.00 0.00 0.00 0.00 0.00 0.00 0.00 0.00 0.00 0.01 0.01 0.01 0.01 0.01 0.01 0.01
0.00 0.00 0.00 0.01 0.01 0.01 0.01 0.01 0.01 0.01 0.00 0.00 0.01 0.00 0.00 0.00 0.00 0.00 0.00 0.00 0.00 0.00 0.00 0.00 0.00 0.00 0.00 0.00 0.00 0.00 0.00 0.00 0.00 0.00 0.00 0.00 0.00 0.01 0.00 0.00 0.01 0.00 0.01
0.00 0.00 0.00 0.00 0.01 0.01 0.01 0.01 0.01 0.01 0.00 0.00 0.00 0.00 0.00 0.00 0.00 0.01 0.00 0.00 0.00 0.00 0.00 0.00 0.00 0.00 0.00 0.00 0.00 0.00 0.00 0.00 0.00 0.00 0.00 0.00 0.00 0.00 0.00 0.00 0.00 0.00 0.00
0.00 0.00 0.00 0.01 0.01 0.01 0.01 0.01 0.01 0.01 0.00 0.00 0.00 0.00 0.00 0.00 0.00 0.00 0.00 0.00 0.00 0.00 0.00 0.00 0.00 0.00 0.00 0.00 0.00 0.00 0.00 0.00 0.00 0.00 0.00 0.00 0.00 0.00 0.00 0.00 0.00 0.00 0.00
0.00 0.00 0.00 0.01 0.01 0.01 0.01 0.01 0.01 0.01 0.00 0.00 0.00 0.00 0.00 0.00 0.00 0.00 0.00 0.00 0.00 0.00 0.00 0.00 0.00 0.00 0.00 0.00 0.00 0.00 0.00 0.00 0.00 0.00 0.00 0.00 0.00 0.00 0.00 0.00 0.00 0.00 0.00
0.00 0.00 0.00 0.01 0.01 0.02 0.01 0.01 0.01 0.01 0.00 0.00 0.00 0.00 0.00 0.00 0.00 0.00 0.00 0.00 0.00 0.00 0.00 0.00 0.00 0.00 0.00 0.00 0.00 0.00 0.00 0.00 0.00 0.00 0.00 0.00 0.00 0.00 0.00 0.00 0.00 0.00 0.00
0.00 0.00 0.00 0.01 0.01 0.02 0.02 0.01 0.01 0.01 0.00 0.00 0.00 0.00 0.00 0.00 0.00 0.00 0.00 0.00 0.00 0.00 0.00 0.00 0.00 0.00 0.00 0.00 0.00 0.00 0.00 0.00 0.00 0.00 0.00 0.00 0.00 0.00 0.00 0.00 0.00 0.00 0.00
0.00 0.00 0.01 0.01 0.01 0.02 0.02 0.01 0.01 0.01 0.01 0.00 0.00 0.00 0.00 0.00 0.00 0.00 0.00 0.00 0.00 0.00 0.00 0.00 0.00 0.00 0.00 0.00 0.00 0.00 0.00 0.00 0.00 0.00 0.00 0.00 0.00 0.00 0.00 0.00 0.00 0.00 0.00
0.00 0.00 0.01 0.01 0.01 0.02 0.02 0.02 0.02 0.02 0.01 0.00 0.00 0.00 0.00 0.00 0.00 0.00 0.00 0.00 0.00 0.00 0.00 0.00 0.00 0.00 0.00 0.00 0.00 0.00 0.00 0.00 0.00 0.00 0.00 0.00 0.00 0.00 0.00 0.00 0.00 0.00 0.00
0.00 0.01 0.01 0.01 0.01 0.02 0.03 0.02 0.02 0.02 0.01 0.01 0.00 0.00 0.00 0.00 0.00 0.00 0.00 0.00 0.00 0.00 0.00 0.00 0.00 0.00 0.00 0.00 0.00 0.00 0.00 0.00 0.00 0.00 0.00 0.00 0.00 0.00 0.00 0.00 0.00 0.00 0.00
0.00 0.01 0.01 0.02 0.02 0.02 0.03 0.02 0.02 0.02 0.01 0.01 0.00 0.00 0.00 0.00 0.00 0.00 0.00 0.00 0.00 0.00 0.00 0.00 0.00 0.00 0.00 0.00 0.00 0.00 0.00 0.00 0.00 0.00 0.00 0.00 0.00 0.00 0.00 0.00 0.00 0.00 0.00
0.00 0.00 0.01 0.02 0.02 0.03 0.04 0.03 0.01 0.01 0.01 0.00 0.00 0.00 0.00 0.00 0.00 0.00 0.00 0.00 0.00 0.00 0.00 0.00 0.00 0.00 0.00 0.00 0.00 0.00 0.00 0.00 0.00 0.00 0.00 0.00 0.00 0.00 0.00 0.00 0.00 0.00 0.00
0.00 0.00 0.01 0.01 0.02 0.03 0.04 0.04 0.02 0.01 0.01 0.00 0.00 0.00 0.00 0.00 0.00 0.00 0.00 0.00 0.00 0.00 0.00 0.00 0.00 0.00 0.00 0.00 0.00 0.00 0.00 0.00 0.00 0.00 0.00 0.00 0.00 0.00 0.00 0.00 0.00 0.00 0.00
0.00 0.00 0.01 0.01 0.02 0.03 0.04 0.03 0.02 0.01 0.01 0.01 0.00 0.00 0.00 0.00 0.00 0.00 0.00 0.00 0.00 0.00 0.00 0.00 0.00 0.00 0.00 0.00 0.00 0.00 0.00 0.00 0.00 0.00 0.00 0.00 0.00 0.00 0.00 0.00 0.00 0.00 0.00
0.00 0.00 0.00 0.01 0.02 0.02 0.04 0.04 0.03 0.02 0.01 0.01 0.00 0.00 0.00 0.00 0.00 0.00 0.00 0.00 0.00 0.00 0.00 0.00 0.00 0.00 0.00 0.00 0.00 0.00 0.00 0.00 0.00 0.00 0.00 0.00 0.00 0.00 0.00 0.00 0.00 0.00 0.00
0.00 0.00 0.00 0.01 0.01 0.02 0.04 0.06 0.04 0.02 0.01 0.01 0.00 0.00 0.00 0.00 0.00 0.00 0.00 0.00 0.00 0.00 0.00 0.00 0.00 0.00 0.00 0.00 0.00 0.00 0.00 0.00 0.00 0.00 0.00 0.00 0.00 0.00 0.00 0.00 0.00 0.00 0.00
0.00 0.00 0.00 0.01 0.01 0.02 0.03 0.06 0.05 0.03 0.02 0.01 0.00 0.00 0.00 0.00 0.00 0.00 0.00 0.00 0.00 0.00 0.00 0.00 0.00 0.00 0.00 0.00 0.00 0.00 0.00 0.00 0.00 0.00 0.00 0.00 0.00 0.00 0.00 0.00 0.00 0.00 0.00
0.00 0.00 0.01 0.01 0.01 0.02 0.02 0.05 0.06 0.03 0.02 0.01 0.00 0.00 0.00 0.00 0.00 0.00 0.00 0.00 0.00 0.00 0.00 0.00 0.00 0.00 0.00 0.00 0.00 0.00 0.00 0.00 0.00 0.00 0.00 0.00 0.00 0.00 0.00 0.00 0.00 0.00 0.00
0.00 0.00 0.01 0.01 0.01 0.01 0.02 0.03 0.05 0.04 0.01 0.01 0.00 0.00 0.00 0.00 0.00 0.00 0.00 0.00 0.00 0.00 0.00 0.01 0.00 0.00 0.00 0.00 0.00 0.00 0.00 0.00 0.00 0.00 0.00 0.00 0.00 0.00 0.00 0.00 0.00 0.00 0.00
0.00 0.00 0.00 0.01 0.01 0.01 0.01 0.02 0.04 0.05 0.02 0.01 0.00 0.00 0.00 0.00 0.00 0.00 0.00 0.00 0.00 0.00 0.01 0.01 0.01 0.00 0.00 0.00 0.00 0.00 0.00 0.00 0.00 0.00 0.00 0.00 0.00 0.00 0.00 0.00 0.00 0.00 0.00
0.00 0.00 0.00 0.01 0.02 0.02 0.02 0.02 0.03 0.04 0.01 0.01 0.00 0.00 0.00 0.00 0.00 0.00 0.00 0.00 0.01 0.01 0.00 0.00 0.00 0.00 0.01 0.01 0.00 0.00 0.00 0.00 0.00 0.00 0.00 0.00 0.00 0.00 0.00 0.00 0.00 0.00 0.00
0.00 0.00 0.00 0.01 0.02 0.02 0.02 0.02 0.03 0.03 0.01 0.00 0.00 0.00 0.00 0.00 0.00 0.00 0.00 0.00 0.00 0.00 0.00 0.00 0.00 0.00 0.00 0.00 0.00 0.00 0.00 0.00 0.00 0.01 0.00 0.00 0.00 0.00 0.00 0.00 0.00 0.00 0.00
0.00 0.00 0.00 0.01 0.02 0.02 0.02 0.02 0.03 0.02 0.01 0.00 0.00 0.00 0.00 0.00 0.00 0.00 0.00 0.00 0.00 0.00 0.00 0.00 0.00 0.00 0.00 0.00 0.00 0.00 0.00 0.00 0.00 0.00 0.00 0.00 0.00 0.00 0.00 0.00 0.00 0.00 0.00
MSLP
1013.62 1013.74 1014.00 1014.36 1014.76 1015.15 1015.47 1015.70 1015.81 1015.84 1015.80 1015.75 1015.72 1015.72 1015.78 1015.86 1015.96 1016.03 1016.05 1016.01 1015.92 1015.80 1015.68 1015.58 1015.52 1015.52 1015.56 1015.62 1015.67 1015.69 1015.67 1015.60 1015.48 1015.34 1015.18 1015.04 1014.91 1014.80 1014.71 1014.62 1014.53 1014.43 1014.33
1013.35 1013.51 1013.81 1014.21 1014.66 1015.09 1015.45 1015.71 1015.86 1015.91 1015.90 1015.87 1015.86 1015.90 1015.98 1016.10 1016.22 1016.31 1016.34 1016.31 1016.22 1016.10 1015.97 1015.87 1015.82 1015.82 1015.87 1015.93 1015.98 1016.00 1015.98 1015.90 1015.77 1015.62 1015.47 1015.32 1015.20 1015.09 1015.00 1014.92 1014.83 1014.73 1014.63
1013.09 1013.30 1013.64 1014.09 1014.57 1015.04 1015.43 1015.72 1015.90 1015.98 1015.99 1015.99 1016.01 1016.07 1016.18 1016.31 1016.45 1016.55 1016.59 1016.56 1016.48 1016.37 1016.25 1016.16 1016.12 1016.12 1016.17 1016.23 1016.27 1016.28 1016.24 1016.14 1016.01 1015.86 1015.71 1015.57 1015.46 1015.37 1015.29 1015.22 1015.15 1015.06 1014.96
1012.88 1013.14 1013.52 1014.00 1014.51 1015.00 1015.41 1015.72 1015.92 1016.03 1016.07 1016.09 1016.13 1016.21 1016.33 1016.47 1016.60 1016.71 1016.76 1016.74 1016.68 1016.59 1016.50 1016.44 1016.41 1016.43 1016.47 1016.52 1016.54 1016.53 1016.46 1016.35 1016.20 1016.05 1015.91 1015.79 1015.70 1015.63 1015.58 1015.53 1015.47 1015.40 1015.31
1012.72 1013.03 1013.44 1013.94 1014.47 1014.96 1015.38 1015.70 1015.92 1016.04 1016.10 1016.15 1016.20 1016.28 1016.40 1016.54 1016.68 1016.78 1016.84 1016.85 1016.82 1016.77 1016.72 1016.69 1016.69 1016.72 1016.77 1016.80 1016.80 1016.75 1016.66 1016.53 1016.37 1016.22 1016.08 1015.98 1015.92 1015.88 1015.85 1015.83 1015.79 1015.74 1015.67
1012.61 1012.96 1013.40 1013.90 1014.42 1014.91 1015.32 1015.64 1015.87 1016.00 1016.08 1016.14 1016.21 1016.30 1016.41 1016.55 1016.68 1016.79 1016.86 1016.90 1016.90 1016.90 1016.90 1016.92 1016.95 1017.00 1017.04 1017.06 1017.04 1016.96 1016.84 1016.68 1016.52 1016.36 1016.24 1016.16 1016.12 1016.10 1016.10 1016.10 1016.08 1016.05 1016.00
1012.55 1012.91 1013.35 1013.84 1014.34 1014.81 1015.21 1015.53 1015.75 1015.90 1016.00 1016.08 1016.16 1016.25 1016.37 1016.51 1016.64 1016.75 1016.84 1016.91 1016.96 1017.00 1017.05 1017.11 1017.18 1017.24 1017.28 1017.28 1017.23 1017.13 1016.98 1016.81 1016.64 1016.49 1016.39 1016.32 1016.30 1016.30 1016.32 1016.33 1016.33 1016.31 1016.28
1012.50 1012.86 1013.28 1013.74 1014.20 1014.64 1015.03 1015.33 1015.57 1015.73 1015.85 1015.96 1016.06 1016.18 1016.31 1016.45 1016.58 1016.71 1016.81 1016.91 1016.99 1017.07 1017.16 1017.25 1017.34 1017.41 1017.45 1017.43 1017.36 1017.24 1017.08 1016.90 1016.73 1016.60 1016.51 1016.47 1016.46 1016.47 1016.49 1016.50 1016.50 1016.48 1016.46
1012.44 1012.76 1013.14 1013.56 1013.99 1014.40 1014.76 1015.06 1015.31 1015.50 1015.65 1015.79 1015.93 1016.08 1016.23 1016.38 1016.53 1016.67 1016.79 1016.90 1017.00 1017.10 1017.21 1017.32 1017.42 1017.49 1017.51 1017.48 1017.40 1017.27 1017.10 1016.94 1016.79 1016.67 1016.60 1016.58 1016.58 1016.59 1016.61 1016.60 1016.59 1016.57 1016.54
1012.32 1012.60 1012.94 1013.31 1013.69 1014.07 1014.41 1014.71 1014.97 1015.19 1015.39 1015.57 1015.76 1015.94 1016.13 1016.31 1016.47 1016.62 1016.75 1016.86 1016.97 1017.08 1017.19 1017.30 1017.39 1017.44 1017.46 1017.42 1017.33 1017.20 1017.06 1016.91 1016.79 1016.71 1016.66 1016.65 1016.66 1016.67 1016.67 1016.65 1016.61 1016.56 1016.52
1012.12 1012.36 1012.64 1012.96 1013.31 1013.66 1013.99 1014.29 1014.57 1014.82 1015.06 1015.29 1015.52 1015.75 1015.97 1016.18 1016.37 1016.53 1016.67 1016.78 1016.89 1016.99 1017.09 1017.18 1017.25 1017.29 1017.29 1017.25 1017.17 1017.06 1016.93 1016.82 1016.73 1016.68 1016.67 1016.68 1016.69 1016.70 1016.68 1016.63 1016.56 1016.49 1016.42
1011.80 1012.00 1012.24 1012.54 1012.86 1013.19 1013.51 1013.82 1014.11 1014.39 1014.66 1014.93 1015.20 1015.47 1015.73 1015.97 1016.18 1016.36 1016.50 1016.62 1016.72 1016.81 1016.89 1016.96 1017.01 1017.04 1017.03 1016.99 1016.92 1016.84 1016.74 1016.67 1016.62 1016.60 1016.62 1016.64 1016.66 1016.66 1016.63 1016.56 1016.46 1016.36 1016.27
1011.34 1011.51 1011.75 1012.03 1012.34 1012.67 1012.99 1013.30 1013.60 1013.89 1014.19 1014.48 1014.79 1015.09 1015.38 1015.64 1015.88 1016.08 1016.24 1016.36 1016.46 1016.54 1016.60 1016.66 1016.70 1016.72 1016.72 1016.68 1016.63 1016.57 1016.51 1016.46 1016.45 1016.46 1016.50 1016.54 1016.56 1016.56 1016.52 1016.44 1016.32 1016.20 1016.08
1010.71 1010.89 1011.14 1011.44 1011.76 1012.10 1012.43 1012.75 1013.06 1013.35 1013.65 1013.95 1014.27 1014.58 1014.89 1015.18 1015.45 1015.67 1015.85 1015.99 1016.10 1016.19 1016.26 1016.31 1016.35 1016.37 1016.37 1016.35 1016.32 1016.28 1016.24 1016.22 1016.22 1016.25 1016.29 1016.34 1016.38 1016.38 1016.34 1016.25 1016.14 1016.00 1015.88
1009.90 1010.12 1010.41 1010.76 1011.12 1011.49 1011.85 1012.18 1012.48 1012.77 1013.06 1013.36 1013.66 1013.98 1014.30 1014.61 1014.90 1015.15 1015.37 1015.54 1015.67 1015.78 1015.87 1015.94 1015.99 1016.02 1016.03 1016.03 1016.00 1015.97 1015.95 1015.93 1015.93 1015.96 1016.00 1016.05 1016.09 1016.10 1016.07 1016.00 1015.90 1015.78 1015.65
1008.93 1009.21 1009.57 1009.98 1010.40 1010.83 1011.22 1011.57 1011.88 1012.17 1012.44 1012.72 1013.01 1013.32 1013.64 1013.96 1014.27 1014.56 1014.81 1015.02 1015.20 1015.34 1015.46 1015.56 1015.63 1015.68 1015.71 1015.71 1015.69 1015.66 1015.62 1015.60 1015.58 1015.58 1015.61 1015.65 1015.68 1015.71 1015.70 1015.66 1015.59 1015.49 1015.39
1007.83 1008.17 1008.60 1009.08 1009.59 1010.08 1010.52 1010.91 1011.25 1011.54 1011.81 1012.07 1012.34 1012.64 1012.95 1013.28 1013.61 1013.93 1014.22 1014.48 1014.70 1014.89 1015.04 1015.17 1015.27 1015.34 1015.38 1015.39 1015.37 1015.32 1015.27 1015.21 1015.16 1015.13 1015.12 1015.14 1015.17 1015.20 1015.22 1015.22 1015.19 1015.13 1015.06
1006.64 1007.03 1007.52 1008.08 1008.66 1009.22 1009.73 1010.18 1010.56 1010.87 1011.15 1011.41 1011.67 1011.95 1012.27 1012.60 1012.95 1013.29 1013.62 1013.92 1014.18 1014.41 1014.60 1014.76 1014.88 1014.97 1015.02 1015.03 1015.00 1014.94 1014.86 1014.76 1014.67 1014.60 1014.56 1014.55 1014.56 1014.60 1014.64 1014.68 1014.69 1014.68 1014.64
1005.44 1005.85 1006.38 1006.98 1007.62 1008.25 1008.84 1009.35 1009.78 1010.14 1010.45 1010.72 1010.99 1011.27 1011.58 1011.92 1012.28 1012.64 1013.00 1013.32 1013.62 1013.88 1014.10 1014.28 1014.43 1014.53 1014.59 1014.60 1014.57 1014.50 1014.39 1014.27 1014.14 1014.02 1013.94 1013.89 1013.89 1013.92 1013.98 1014.04 1014.09 1014.12 1014.13
1004.32 1004.69 1005.21 1005.82 1006.50 1007.18 1007.82 1008.40 1008.90 1009.32 1009.67 1009.97 1010.26 1010.56 1010.88 1011.22 1011.59 1011.96 1012.33 1012.68 1013.00 1013.28 1013.52 1013.72 1013.88 1013.99 1014.06 1014.09 1014.06 1013.98 1013.87 1013.72 1013.56 1013.41 1013.29 1013.22 1013.19 1013.20 1013.26 1013.33 1013.41 1013.48 1013.52
1003.34 1003.64 1004.09 1004.67 1005.33 1006.02 1006.70 1007.34 1007.90 1008.38 1008.78 1009.13 1009.45 1009.77 1010.10 1010.45 1010.82 1011.20 1011.58 1011.94 1012.27 1012.56 1012.82 1013.03 1013.21 1013.34 1013.43 1013.47 1013.46 1013.40 1013.29 1013.14 1012.98 1012.81 1012.66 1012.55 1012.49 1012.49 1012.52 1012.60 1012.69 1012.78 1012.85
1002.57 1002.75 1003.09 1003.58 1004.18 1004.84 1005.52 1006.18 1006.79 1007.31 1007.77 1008.16 1008.52 1008.86 1009.20 1009.57 1009.94 1010.33 1010.72 1011.08 1011.42 1011.72 1011.99 1012.22 1012.41 1012.56 1012.68 1012.76 1012.78 1012.76 1012.68 1012.55 1012.40 1012.23 1012.07 1011.93 1011.84 1011.80 1011.82 1011.88 1011.96 1012.06 1012.15
1002.06 1002.09 1002.28 1002.63 1003.12 1003.71 1004.35 1004.99 1005.60 1006.16 1006.64 1007.07 1007.45 1007.81 1008.17 1008.54 1008.93 1009.32 1009.72 1010.09 1010.44 1010.76 1011.04 1011.28 1011.50 1011.69 1011.84 1011.96 1012.04 1012.06 1012.04 1011.96 1011.83 1011.68 1011.52 1011.37 1011.25 1011.18 1011.17 1011.20 1011.27 1011.37 1011.48
1001.81 1001.67 1001.69 1001.88 1002.22 1002.70 1003.25 1003.84 1004.43 1004.97 1005.45 1005.89 1006.28 1006.65 1007.02 1007.40 1007.79 1008.19 1008.60 1008.99 1009.36 1009.70 1010.00 1010.27 1010.52 1010.74 1010.94 1011.11 1011.25 1011.34 1011.38 1011.35 1011.27 1011.15 1011.00 1010.85 1010.72 1010.63 1010.58 1010.59 1010.64 1010.74 1010.86
1001.77 1001.47 1001.32 1001.34 1001.53 1001.86 1002.31 1002.81 1003.33 1003.82 1004.28 1004.69 1005.07 1005.43 1005.80 1006.18 1006.58 1007.00 1007.42 1007.83 1008.22 1008.58 1008.91 1009.22 1009.50 1009.76 1010.01 1010.23 1010.43 1010.58 1010.68 1010.72 1010.70 1010.62 1010.50 1010.37 1010.23 1010.12 1010.06 1010.04 1010.09 1010.18 1010.31
1001.86 1001.44 1001.14 1001.00 1001.04 1001.24 1001.56 1001.95 1002.38 1002.80 1003.20 1003.56 1003.90 1004.24 1004.59 1004.96 1005.37 1005.79 1006.23 1006.67 1007.08 1007.47 1007.83 1008.16 1008.47 1008.77 1009.05 1009.32 1009.57 1009.79 1009.95 1010.05 1010.09 1010.06 1009.98 1009.87 1009.75 1009.65 1009.58 1009.56 1009.60 1009.70 1009.84
Thickness
5773 5771 5764 5761 5758 5754 5752 5750 5748 5746 5744 5742 5741 5739 5738 5736 5735 5734 5732 5731 5730 5729 5727 5726 5725 5723 5722 5720 5719 5718 5716 5714 5713 5712 5710 5709 5708 5706 5704 5703 5704 5703 5700
5776 5770 5762 5759 5756 5753 5750 5748 5746 5744 5742 5740 5738 5737 5735 5733 5732 5731 5729 5728 5727 5725 5724 5722 5721 5720 5718 5716 5714 5713 5711 5709 5708 5706 5705 5704 5702 5701 5700 5698 5698 5697 5695
5773 5768 5761 5758 5754 5751 5749 5746 5744 5742 5740 5738 5736 5734 5732 5731 5729 5728 5726 5725 5723 5722 5720 5719 5717 5715 5713 5712 5710 5708 5706 5704 5702 5701 5701 5701 5698 5696 5694 5693 5692 5690 5689
5770 5766 5761 5756 5752 5749 5746 5744 5741 5739 5737 5735 5733 5731 5730 5728 5726 5725 5723 5721 5719 5717 5716 5714 5712 5711 5709 5707 5705 5703 5701 5699 5698 5697 5698 5696 5694 5691 5689 5687 5686 5685 5683
5766 5763 5760 5754 5750 5747 5744 5741 5739 5737 5735 5732 5730 5728 5727 5725 5723 5721 5719 5717 5715 5713 5711 5710 5708 5706 5704 5702 5700 5698 5696 5694 5693 5694 5692 5690 5688 5685 5684 5682 5680 5679 5677
5763 5760 5756 5751 5747 5744 5741 5739 5736 5734 5732 5730 5728 5726 5724 5722 5720 5718 5715 5713 5711 5709 5707 5705 5703 5702 5699 5697 5695 5693 5691 5690 5690 5689 5687 5686 5684 5680 5679 5677 5675 5673 5672
5759 5757 5753 5747 5744 5741 5739 5736 5733 5731 5729 5727 5725 5723 5720 5718 5716 5714 5712 5709 5707 5705 5703 5701 5699 5697 5695 5693 5691 5689 5687 5685 5687 5685 5683 5681 5678 5675 5674 5672 5670 5668 5666
5755 5752 5749 5743 5741 5738 5736 5733 5730 5728 5726 5724 5721 5719 5717 5715 5713 5710 5708 5706 5704 5701 5699 5697 5695 5693 5691 5689 5686 5684 5682 5681 5681 5680 5678 5675 5672 5670 5669 5667 5665 5663 5661
5750 5748 5746 5742 5738 5735 5733 5730 5727 5725 5722 5720 5718 5716 5714 5711 5709 5707 5705 5702 5700 5698 5695 5693 5691 5689 5687 5685 5682 5680 5678 5677 5678 5676 5673 5670 5667 5666 5664 5662 5660 5657 5655
5745 5744 5743 5740 5737 5734 5730 5727 5725 5722 5720 5717 5715 5712 5710 5707 5705 5703 5701 5699 5696 5694 5692 5689 5687 5685 5682 5680 5678 5676 5674 5673 5674 5671 5669 5666 5662 5661 5659 5657 5654 5652 5650
5739 5740 5740 5739 5736 5733 5730 5725 5722 5719 5716 5714 5711 5708 5706 5705 5703 5700 5698 5695 5692 5690 5688 5685 5683 5681 5678 5676 5674 5672 5670 5672 5670 5668 5665 5661 5658 5657 5655 5652 5650 5647 5645
5736 5737 5738 5736 5734 5731 5728 5724 5721 5718 5715 5713 5711 5707 5705 5703 5701 5698 5694 5691 5688 5686 5683 5681 5679 5677 5675 5675 5671 5668 5669 5668 5666 5663 5660 5656 5654 5652 5650 5648 5645 5643 5641
5736 5735 5735 5733 5731 5729 5726 5723 5720 5718 5714 5712 5710 5706 5703 5700 5697 5694 5691 5687 5685 5682 5681 5677 5675 5675 5674 5672 5670 5668 5666 5665 5663 5660 5656 5652 5650 5648 5646 5644 5641 5639 5636
5734 5733 5732 5731 5728 5726 5724 5722 5719 5717 5714 5711 5708 5704 5701 5698 5695 5693 5690 5687 5684 5681 5679 5676 5674 5673 5671 5669 5667 5665 5663 5661 5659 5656 5652 5648 5645 5643 5642 5640 5638 5635 5632
5731 5731 5730 5728 5726 5724 5722 5720 5718 5715 5713 5710 5706 5702 5699 5696 5694 5691 5688 5685 5682 5679 5676 5674 5672 5670 5668 5666 5663 5661 5659 5657 5655 5652 5649 5644 5641 5639 5637 5635 5633 5631 5628
5730 5729 5728 5726 5724 5721 5720 5718 5716 5714 5710 5708 5704 5701 5697 5695 5692 5688 5686 5682 5680 5677 5674 5672 5670 5667 5665 5662 5660 5658 5656 5654 5651 5649 5646 5642 5638 5635 5633 5631 5629 5627 5624
5729 5728 5726 5724 5722 5719 5717 5715 5713 5711 5709 5706 5703 5699 5695 5692 5689 5686 5683 5680 5677 5674 5671 5668 5667 5664 5661 5659 5657 5654 5652 5650 5648 5645 5642 5639 5636 5632 5629 5627 5624 5622 5620
5726 5725 5724 5721 5720 5718 5716 5713 5711 5709 5707 5704 5701 5698 5694 5690 5687 5683 5681 5678 5675 5671 5668 5665 5663 5660 5658 5655 5654 5652 5649 5646 5644 5642 5639 5636 5633 5630 5626 5622 5620 5617 5615
5725 5724 5722 5720 5718 5717 5714 5711 5708 5707 5704 5702 5699 5696 5693 5689 5685 5681 5679 5676 5672 5668 5665 5662 5660 5658 5655 5652 5650 5648 5645 5643 5641 5638 5636 5633 5629 5626 5623 5619 5615 5612 5610
5721 5721 5720 5718 5716 5714 5710 5707 5705 5703 5701 5699 5697 5695 5691 5688 5683 5680 5677 5674 5670 5666 5663 5660 5657 5654 5652 5648 5645 5643 5641 5640 5637 5635 5633 5629 5626 5622 5618 5615 5612 5609 5605
5716 5716 5717 5716 5714 5711 5708 5705 5702 5700 5699 5697 5695 5693 5689 5686 5682 5678 5675 5672 5668 5664 5661 5658 5655 5651 5647 5643 5639 5638 5638 5637 5635 5632 5629 5626 5623 5619 5614 5610 5607 5604 5601
5713 5714 5714 5714 5712 5711 5710 5707 5704 5701 5698 5696 5693 5690 5688 5684 5681 5677 5674 5671 5666 5662 5659 5656 5652 5648 5644 5639 5636 5634 5634 5635 5633 5629 5626 5622 5619 5615 5611 5607 5603 5599 5596
5707 5709 5710 5711 5710 5709 5707 5703 5699 5696 5694 5691 5690 5688 5687 5683 5680 5677 5673 5669 5665 5661 5658 5655 5650 5645 5642 5637 5634 5632 5630 5631 5631 5627 5623 5619 5615 5611 5607 5603 5599 5595 5591
5703 5704 5705 5707 5707 5706 5703 5700 5698 5697 5696 5696 5693 5690 5686 5682 5679 5675 5672 5668 5664 5661 5657 5654 5649 5644 5640 5636 5630 5628 5628 5628 5623 5623 5620 5615 5611 5607 5603 5599 5595 5591 5586
5696 5697 5699 5701 5702 5702 5700 5699 5696 5696 5697 5695 5692 5688 5685 5681 5678 5674 5670 5666 5663 5660 5656 5652 5648 5643 5639 5635 5630 5625 5621 5617 5615 5614 5614 5612 5607 5603 5599 5595 5590 5586 5581
5689 5690 5692 5694 5696 5697 5697 5696 5695 5696 5695 5692 5690 5687 5683 5680 5676 5673 5669 5665 5662 5659 5655 5651 5646 5641 5637 5634 5630 5625 5620 5616 5612 5609 5608 5607 5605 5601 5595 5589 5585 5581 5576